Location: Innsbruck
(47.2657°N, 11.3914°E)
Time: 20:07:47
(UTC+02:00)

N. Korean satellite - Pass Details

Date: 20 September 2021
Orbit: 450 x 495 km, 97.3° (Epoch: 15 October)

Event Time Altitude Azimuth Distance (km) Brightness Sun altitude
Rises 06:16:13 0° 18° (NNE) 2,505 10.6 -8.0°
Reaches altitude 10° 06:18:19 10° 24° (NNE) 1,632 9.7 -7.6°
Maximum altitude 06:21:42 46° 99° (E) 645 7.8 -7.1°
Drops below altitude 10° 06:25:07 10° 174° (S) 1,644 9.2 -6.5°
Sets 06:27:14 0° 181° (S) 2,525 10.1 -6.1°
